Sedalia, MO

1:03 PM CDT on April 26, 2017 (GMT -0500)
Sedalia Memorial

Weather History for KDMO - October, 2012

Change the Weather History Date:

Friday, October 19, 2012

  Actual Average Record
Temperature  
Mean Temperature 49 °F 57 °F  
Max Temperature 52 °F 68 °F 87 °F (1963)
Min Temperature 46 °F 47 °F 23 °F (1972)
Degree Days  
Heating Degree Days 16 8  
Month to date heating degree days 170 121  
Since 1 July heating degree days 210 166  
Cooling Degree Days 0 1  
Month to date cooling degree days 2 29  
Year to date cooling degree days 2082 1479  
Moisture  
Dew Point 42 °F    
Average Humidity 83    
Maximum Humidity 100    
Minimum Humidity 66    
Precipitation  
Precipitation 0.02 in 0.13 in 1.52 in (1985)
Month to date precipitation 2.66 2.42  
Year to date precipitation 24.84 34.47  
Sea Level Pressure  
Sea Level Pressure 29.73 in    
Wind  
Wind Speed 13 mph (WNW)    
Max Wind Speed 26 mph    
Max Gust Speed 36 mph    
Visibility 10 miles    
Events Rain    
T = Trace of Precipitation, MM = Missing Value Source: NWS Daily Summary

Daily Weather History Graph

Daily Weather History Graph

Search for Another Location

Airport or City:

Trip Planner

Search our weather history database for the weather conditions in past years. The results will help you decide how hot, cold, wet, or windy it might be!

Date:

Astronomy

Oct. 19, 2012 Rise Set
Actual Time 7:26 AM CDT 6:28 PM CDT
Civil Twilight 6:59 AM CDT 6:54 PM CDT
Nautical Twilight 6:28 AM CDT 7:25 PM CDT
Astronomical Twilight 5:57 AM CDT 7:56 PM CDT
Moon 12:07 PM CDT (10/19) 10:09 PM CDT (10/19)
Length of Visible Light 11h 55m
Length of Day
11h 01m
Waxing Crescent, 24% of the Moon is Illuminated
Oct 19
Waxing Crescent
Oct 21
First Quarter
Oct 29
Full
Nov 6
Last Quarter
Nov 13
New

Hourly Weather History & Observations

Time (CDT) Temp. Windchill Dew Point Humidity Pressure Visibility Wind Dir Wind Speed Gust Speed Precip Events Conditions
12:53 AM 50.0 °F - 39.0 °F 66% 29.64 in 10.0 mi West 18.4 mph 33.4 mph N/A   Overcast
1:53 AM 48.0 °F - 41.0 °F 77% 29.64 in 10.0 mi West 20.7 mph 29.9 mph 0.00 in Rain Light Rain
2:53 AM 46.9 °F - 42.1 °F 83% 29.63 in 10.0 mi West 16.1 mph 26.5 mph 0.01 in Rain Light Rain
3:21 AM 46.4 °F 39.8 °F 44.6 °F 93% 29.63 in 10.0 mi West 16.1 mph 23.0 mph 0.00 in Rain Light Rain
3:53 AM 46.9 °F - 46.0 °F 97% 29.62 in 10.0 mi West 18.4 mph 33.4 mph 0.00 in Rain Light Rain
4:53 AM 48.0 °F - - N/A% 29.62 in 10.0 mi West 15.0 mph 26.5 mph 0.01 in   Overcast
5:20 AM 48.2 °F - - N/A% 29.63 in 10.0 mi West 13.8 mph 21.9 mph 0.00 in   Overcast
5:53 AM 48.0 °F - - N/A% 29.63 in 10.0 mi West 16.1 mph 25.3 mph 0.00 in Rain Light Rain
6:53 AM 46.9 °F - - N/A% 29.65 in 10.0 mi WNW 13.8 mph 20.7 mph 0.00 in   Overcast
7:00 AM 46.4 °F 40.1 °F - N/A% 29.65 in 10.0 mi West 15.0 mph - 0.00 in Rain Light Rain
7:38 AM 46.4 °F 40.4 °F 42.8 °F 87% 29.66 in 10.0 mi WNW 13.8 mph - 0.00 in   Overcast
7:53 AM 46.9 °F - 42.1 °F 83% 29.67 in 10.0 mi WNW 11.5 mph 23.0 mph 0.00 in   Overcast
8:14 AM 46.4 °F 38.5 °F 41.0 °F 81% 29.67 in 10.0 mi WNW 21.9 mph 27.6 mph N/A   Overcast
8:24 AM 46.4 °F 40.4 °F 41.0 °F 81% 29.67 in 10.0 mi WNW 13.8 mph 25.3 mph N/A   Overcast
8:36 AM 46.4 °F 40.1 °F 41.0 °F 81% 29.68 in 10.0 mi WNW 15.0 mph 24.2 mph N/A   Overcast
8:53 AM 48.0 °F - 41.0 °F 77% 29.69 in 10.0 mi WNW 17.3 mph 26.5 mph N/A   Overcast
9:53 AM 48.9 °F - 39.9 °F 71% 29.71 in 10.0 mi WNW 18.4 mph 27.6 mph N/A   Overcast
10:53 AM 50.0 °F - 41.0 °F 71% 29.73 in 10.0 mi WNW 13.8 mph 25.3 mph N/A   Overcast
11:53 AM 50.0 °F - 42.1 °F 74% 29.76 in 10.0 mi NW 17.3 mph 26.5 mph 0.00 in   Overcast
12:53 PM 50.0 °F - 42.1 °F 74% 29.76 in 10.0 mi West 17.3 mph 23.0 mph 0.00 in   Overcast
1:53 PM 51.1 °F - 42.1 °F 71% 29.77 in 10.0 mi West 18.4 mph 23.0 mph N/A   Overcast
2:53 PM 51.1 °F - 41.0 °F 68% 29.78 in 10.0 mi WNW 13.8 mph 23.0 mph N/A   Overcast
3:53 PM 51.1 °F - 41.0 °F 68% 29.80 in 10.0 mi WNW 15.0 mph 21.9 mph N/A   Overcast
4:53 PM 52.0 °F - 42.1 °F 69% 29.81 in 10.0 mi WNW 9.2 mph - N/A   Overcast
5:53 PM 51.1 °F - 41.0 °F 68% 29.81 in 10.0 mi West 9.2 mph 18.4 mph N/A   Overcast
6:03 PM 51.8 °F - 42.8 °F 71% 29.81 in 10.0 mi WNW 10.4 mph 20.7 mph N/A   Overcast
6:12 PM 51.8 °F - 42.8 °F 71% 29.81 in 10.0 mi WNW 10.4 mph - N/A   Overcast
6:53 PM 51.1 °F - 42.1 °F 71% 29.83 in 10.0 mi West 6.9 mph - N/A   Overcast
7:35 PM 51.8 °F - 41.0 °F 67% 29.82 in 10.0 mi West 9.2 mph - N/A   Overcast
7:50 PM 51.8 °F - 42.8 °F 71% 29.82 in 10.0 mi West 5.8 mph - N/A   Overcast
7:53 PM 51.1 °F - 42.1 °F 71% 29.83 in 10.0 mi West 5.8 mph - N/A   Overcast
8:53 PM 51.1 °F - 42.1 °F 71% 29.83 in 10.0 mi West 4.6 mph - N/A   Overcast
9:53 PM 51.1 °F - 42.1 °F 71% 29.84 in 10.0 mi West 4.6 mph - N/A   Overcast
10:53 PM 50.0 °F - 42.1 °F 74% 29.84 in 10.0 mi West 5.8 mph - N/A   Overcast
11:53 PM 50.0 °F - 42.1 °F 74% 29.83 in 10.0 mi WNW 4.6 mph - N/A   Overcast